Location: Zagreb
(45.8000°N, 16.0000°E)
Time: 01:28:56
(UTC+02:00)

Transit 2A Rocket - Pass Details

Date: 30 January 2022
Orbit: 592 x 909 km, 66.7° (Epoch: 26 May)

Event Time Altitude Azimuth Distance (km) Brightness Sun altitude
Rises 17:25:56 0° 206° (SSW) 3,477 9.2 -5.2°
Reaches altitude 10° 17:28:24 10° 205° (SSW) 2,564 8.4 -5.6°
Maximum altitude 17:34:25 77° 120° (ESE) 937 5.4 -6.6°
Drops below altitude 10° 17:40:29 10° 36° (NE) 2,585 7.3 -7.6°
Enters shadow 17:42:29 - 35° (NE) 3,325 7.8 -7.9°
Sets 17:42:59 0° 35° (NE) 3,509 - -8.0°
